User: anonymous   Login
Location: ??????
(36.0418°N, 43.6351°E)
Time: 04:22:06
(UTC+00:00)
Language:

Cosmos 1606 - Orbit

View from above orbital plane
View from above orbital plane
View from above satellite
View from above satellite

Ground track
Ground track

The orbit data is extracted from the following two-line orbital elements,

1 15369U 84111A   21125.37768255  .00000782  00000-0  37672-4 0  9999
2 15369  82.5275 165.8772 0017771  21.4131 338.7842 15.17103284995376
Epoch (UTC): 05 May 2021 09:03:51
Eccentricity: 0.0017771
inclination: 82.5275°
perigee height: 502 km
apogee height: 527 km
right ascension of ascending node: 165.8772°
argument of perigee: 21.4131°
revolutions per day: 15.17103284
mean anomaly at epoch: 338.7842°
orbit number at epoch: 99537

The dashed part of the orbit path shows where the satellite is in the earth's shadow,  

DLR